Flag for Poland Weather past 2 weeks in Tarnów, Poland

Now
29 °F

Snow flurries. Overcast.


Feels Like: 29 °F
Forecast: 15 / 34 °F
Wind: 2 mph from Northwest

Location: Tarnow

Current Time: Jan 26, 2015 at 2:11:56 AM

Latest Report: Jan 26, 2015 at 1:00 AM


Visibility: 2 mi

Pressure: 30.25 "Hg

Humidity: 95%

Dew point: 28 °F

Location of TarnówLocation

Historic Weather in Tarnów — Graph

°F

Tarnów temperature yesterday

Maximum temperature yesterday: 33 °F (at 12:00 AM)
Minimum temperature yesterday: 28 °F (at 8:00 PM)
Average temperature yesterday: 30 °F

Past Weeks' High & Low Weather Summary

 TemperatureHumidityPressure
High55 °F (Jan 17, 1:00 PM)100% (Jan 21, 6:00 AM)30.24 "Hg (Jan 21, 6:00 AM)
Low28 °F (Jan 25, 8:00 PM)38% (Jan 17, 1:00 PM)29.63 "Hg (Jan 11, 12:00 AM)
Average38 °F82%30.01 "Hg
* Reported Midnight between Jan 10 and Jan 11 — Midnight between Jan 25 and Jan 26, Tarnów, Weather by CustomWeather, © 2014

Note: Actual official high and low records may vary slightly from our data, if they occured in-between our weather recording intervals... More about our weather records

Advertising

Tarnów weather history for previous 24 hours

 ConditionsComfort  
Time TempWeatherWind HumidityBarometerVisibility
12:00 AM
Jan 26
29 °FLight snow. Overcast.2 mph95%30.24 "Hg2 mi
11:00 PM
Jan 25
29 °FHeavy snow. Overcast.2 mph95%30.24 "Hg2 mi
9:00 PM28 °FFreezing rain. Overcast.2 mph96%30.23 "Hg1 mi
8:00 PM28 °FFreezing rain. Overcast.2 mph96%30.22 "Hg1 mi
7:00 PM29 °FHeavy snow. Overcast.2 mph96%30.21 "Hg1 mi
6:00 PM29 °FHeavy snow. Overcast.2 mph96%30.19 "Hg1 mi
5:00 PM29 °FFreezing rain. Overcast.2 mph96%30.17 "Hg1 mi
4:00 PM29 °FLight snow. Cloudy.1 mph97%30.15 "Hg1 mi
3:00 PM29 °FLight snow. Cloudy.2 mph96%30.14 "Hg1 mi
2:00 PM29 °FLight snow. Cloudy.2 mph96%30.12 "Hg1 mi
1:00 PM30 °FLight snow. Cloudy.2 mph95%30.11 "Hg1 mi
12:00 PM30 °FLight snow. Cloudy.2 mph96%30.11 "Hg1 mi
11:00 AM30 °FLight snow. Cloudy.2 mph96%30.10 "Hg1 mi
10:00 AM30 °FLight snow. Cloudy.2 mph97%30.10 "Hg1 mi
9:00 AM31 °FLight snow. Cloudy.2 mph97%30.09 "Hg2 mi
8:00 AM31 °FFreezing rain. Cloudy.1 mph98%30.06 "Hg1 mi
7:00 AM31 °FLight snow. Overcast.2 mph99%30.05 "Hg1 mi
6:00 AM32 °FLight snow. Overcast.2 mph100%30.04 "Hg2 mi
5:00 AM32 °FLight snow. Overcast.1 mph99%30.02 "Hg1 mi
4:00 AM32 °FLight rain. Overcast.1 mph99%30.02 "Hg1 mi
3:00 AM33 °FHeavy snow. Overcast.1 mph100%30.00 "Hg1 mi
2:00 AM33 °FChilly.1 mph99%30.00 "Hg1 mi
Weather by CustomWeather, © 2014

See weather overviewHow to use our weather pages